Location: Владивосток
(43.1151°N, 131.8856°E)
Time: 04:13:20
(UTC+10:00)

CZ-6A DEB - Pass Details

Date: 17 December 2025
Orbit: 721 x 816 km, 98.7° (Epoch: 12 January)

Event Time Altitude Azimuth Distance (km) Brightness Sun altitude
Exits shadow 19:24:21 12° 16° (NNE) 2,150 ? -18.5°
Drops below altitude 10° 19:24:48 10° 12° (NNE) 2,284 ? -18.6°
Sets 19:27:27 0° 359° (N) 3,197 ? -19.0°
